This demonstration page uses our WeatherBlox Daily Observations layout. Learn more.

Left ArrowRight Arrow

41.86663, -103.66717

Hourly Observations for July 8, 2018

Temp ( °F °C ) Dew Point ( °F °C ) Humidity (%) Winds ( mph kmh ) Pressure ( in mb ) Visibility ( mi km ) Precip ( " mm )
12:53 am 00:53 Clear 75 23.9 61 16.1 62 62 ESE 9 15 29.93 1013 10 16.0934 N/A
1:53 am 01:53 Clear 75 23.9 59 15 58 58 SE 10 17 29.89 1012 10 16.0934 N/A
2:53 am 02:53 Clear 72 22.2 60 15.6 66 66 ESE 10 17 29.88 1012 10 16.0934 N/A
3:53 am 03:53 Clear 70 21.1 61 16.1 73 73 ESE 12 19 29.88 1012 10 16.0934 N/A
4:53 am 04:53 Clear 67 19.4 61 16.1 81 81 E 6 9 29.91 1013 10 16.0934 N/A
5:53 am 05:53 Sunny 65 18.3 62 16.7 90 90 E 8 13 29.92 1013 10 16.0934 N/A
6:53 am 06:53 Sunny 69 20.6 63 17.2 81 81 ESE 8 13 29.92 1013 10 16.0934 N/A
7:53 am 07:53 Sunny 74 23.3 64 17.8 71 71 ESE 9 15 29.93 1014 10 16.0934 N/A
8:53 am 08:53 Sunny 78 25.6 64 17.8 62 62 SE 8 13 29.93 1014 10 16.0934 N/A
9:53 am 09:53 Sunny 83 28.3 64 17.8 53 53 E 3 6 29.93 1014 10 16.0934 N/A
10:53 am 10:53 Sunny 86 30 64 17.8 48 48 E 6 9 29.94 1014 10 16.0934 N/A
11:53 am 11:53 Sunny 88 31.1 65 18.3 46 46 VRB 3 6 29.94 1014 10 16.0934 N/A
12:53 pm 12:53 Sunny 90 32.2 64 17.8 42 42 SE 8 13 29.93 1014 10 16.0934 N/A
1:53 pm 13:53 Sunny 93 33.9 62 16.7 36 36 ESE 10 17 29.92 1013 10 16.0934 N/A
2:53 pm 14:53 Sunny 95 35 62 16.7 34 34 ESE 8 13 29.91 1013 10 16.0934 N/A
3:53 pm 15:53 Sunny 97 36.1 60 15.6 29 29 SE 8 13 29.91 1013 10 16.0934 N/A
4:53 pm 16:53 Sunny 97 36.1 58 14.4 27 27 ESE 7 11 29.91 1013 10 16.0934 N/A
5:53 pm 17:53 Sunny 96 35.6 61 16.1 31 31 E 7 11 29.91 1013 10 16.0934 N/A
6:53 pm 18:53 Sunny 92 33.3 65 18.3 41 41 E 10 17 29.92 1013 10 16.0934 N/A
7:53 pm 19:53 Sunny 85 29.4 66 18.9 53 53 E 8 13 29.94 1014 10 16.0934 N/A
8:53 pm 20:53 Clear 80 26.7 66 18.9 62 62 E 8 13 29.97 1015 10 16.0934 N/A
9:53 pm 21:53 Clear 77 25 64 17.8 64 64 E 9 15 29.99 1016 10 16.0934 N/A
10:53 pm 22:53 Clear 76 24.4 61 16.1 60 60 E 9 15 30 1016 10 16.0934 N/A
11:53 pm 23:53 Clear 73 22.8 60 15.6 64 64 ESE 6 9 30.01 1016 10 16.0934 N/A

Powered by AerisWeather